Terminal Aerodrome Forecast
Issued by NWS Upton, NY

Home | Current Version | Previous Version | Text Only | Print | Product List | Glossary On
Versions: 1 2 3 4 5 6 7 8 9 10 11 12 13 14 15 16 17 18 19 20 21 22 23 24 25 26 27
000
FTUS41 KOKX 280100 AAB
TAFBDR
TAF AMD
KBDR 280133Z 2802/2824 VRB04KT P6SM SCT040 BKN150
     FM280700 34007KT P6SM FEW050
     FM281300 32012G17KT P6SM SKC
     FM282100 32013KT P6SM SKC=

USA.gov is the U.S. government's official web portal to all federal, state and local government web resources and services.